Location: Proctor
(47.8934°N, 114.3048°W)
Time: 14:17:15
(UTC+00:00)

CAS-6 - Pass Details

Date: 05 July 2022
Orbit: 613 x 634 km, 97.9° (Epoch: 19 August)

Event Time Altitude Azimuth Distance (km) Brightness Sun altitude
Exits shadow 06:41:10 18° 223° (SW) 1,528 ? -18.0°
Maximum altitude 06:43:20 27° 265° (W) 1,211 ? -18.1°
Drops below altitude 10° 06:47:02 10° 324° (NW) 1,999 ? -18.3°
Sets 06:49:31 0° 337° (NNW) 2,907 ? -18.4°
